| time (UTC) | temp F | wind direction | speed MPH | gust MPH | rain 1hr in | rain 24hr in | rain mn in | humidity % | barometer mb |
| 20260504044550 | 49 | 267 | 6.0 | 13.0 | 0.00 | 0.00 | 0.00 | 59 | 1006.5 |
| 20260504043045 | 49 | 244 | 7.0 | 15.0 | 0.00 | 0.00 | 0.00 | 60 | 1006.5 |
| 20260504041542 | 49 | 275 | 4.0 | 12.0 | 0.00 | 0.00 | 0.00 | 60 | 1006.6 |
| 20260504040044 | 49 | 264 | 10.0 | 13.0 | 0.00 | 0.00 | 0.00 | 60 | 1006.8 |
| 20260504034539 | 49 | 242 | 4.0 | 11.0 | 0.00 | 0.00 | 0.00 | 61 | 1006.7 |
| 20260504033049 | 50 | 275 | 3.0 | 10.0 | 0.00 | 0.00 | 0.00 | 61 | 1006.8 |
| 20260504031538 | 50 | 254 | 5.0 | 9.0 | 0.00 | 0.00 | 0.00 | 60 | 1006.7 |
| 20260504030037 | 50 | 266 | 6.0 | 13.0 | 0.00 | 0.00 | 0.00 | 59 | 1006.8 |
| 20260504024545 | 51 | 269 | 6.0 | 14.0 | 0.00 | 0.00 | 0.00 | 59 | 1006.9 |
| 20260504023036 | 51 | 285 | 7.0 | 13.0 | 0.00 | 0.00 | 0.00 | 59 | 1007.1 |
| 20260504021539 | 52 | 281 | 6.0 | 16.0 | 0.00 | 0.00 | 0.00 | 59 | 1007.2 |
| 20260504020034 | 52 | 302 | 9.0 | 25.0 | 0.00 | 0.00 | 0.00 | 58 | 1007.3 |
| 20260504014534 | 52 | 271 | 10.0 | 26.0 | 0.00 | 0.00 | 0.00 | 57 | 1007.4 |
| 20260504013038 | 52 | 291 | 12.0 | 25.0 | 0.00 | 0.00 | 0.00 | 56 | 1007.2 |
| 20260504011533 | 52 | 304 | 12.0 | 19.0 | 0.00 | 0.00 | 0.00 | 57 | 1007.2 |
| 20260504010032 | 51 | 309 | 11.0 | 21.0 | 0.00 | 0.00 | 0.00 | 58 | 1007.2 |
| 20260504004541 | 51 | 299 | 9.0 | 21.0 | 0.00 | 0.00 | 0.00 | 58 | 1007.2 |
| 20260504003030 | 52 | 293 | 17.0 | 30.0 | 0.00 | 0.00 | 0.00 | 56 | 1007.5 |
| 20260504001530 | 52 | 301 | 14.0 | 24.0 | 0.00 | 0.00 | 0.00 | 53 | 1007.2 |
| 20260504000030 | 52 | 298 | 13.0 | 22.0 | 0.00 | 0.00 | 0.00 | 52 | 1007.0 |
| 20260503234529 | 52 | 285 | 14.0 | 27.0 | 0.00 | 0.00 | 0.00 | 53 | 1007.0 |
| 20260503233031 | 52 | 315 | 16.0 | 29.0 | 0.00 | 0.00 | 0.00 | 53 | 1007.2 |
| 20260503231527 | 53 | 334 | 15.0 | 29.0 | 0.00 | 0.00 | 0.00 | 51 | 1007.0 |
| 20260503230032 | 53 | 312 | 23.0 | 37.0 | 0.00 | 0.00 | 0.00 | 49 | 1006.8 |
| 20260503224526 | 54 | 301 | 19.0 | 32.0 | 0.00 | 0.00 | 0.00 | 48 | 1006.8 |
| 20260503223026 | 54 | 296 | 13.0 | 29.0 | 0.00 | 0.00 | 0.00 | 48 | 1006.7 |
| 20260503221525 | 54 | 321 | 11.0 | 27.0 | 0.00 | 0.00 | 0.00 | 49 | 1006.8 |
| 20260503220025 | 54 | 300 | 21.0 | 38.0 | 0.00 | 0.00 | 0.00 | 45 | 1006.7 |
| 20260503214523 | 55 | 312 | 13.0 | 35.0 | 0.00 | 0.00 | 0.00 | 49 | 1006.7 |
| 20260503213027 | 55 | 298 | 12.0 | 24.0 | 0.00 | 0.00 | 0.00 | 50 | 1006.5 |
| 20260503211534 | 57 | 312 | 12.0 | 27.0 | 0.00 | 0.00 | 0.00 | 48 | 1006.5 |
| 20260503210020 | 56 | 256 | 17.0 | 29.0 | 0.00 | 0.00 | 0.00 | 51 | 1006.5 |
| 20260503204518 | 56 | 325 | 14.0 | 25.0 | 0.00 | 0.00 | 0.00 | 51 | 1006.6 |
| 20260503203015 | 54 | 329 | 11.0 | 16.0 | 0.00 | 0.00 | 0.00 | 53 | 1006.9 |
| 20260503201511 | 54 | 323 | 5.0 | 11.0 | 0.00 | 0.00 | 0.00 | 54 | 1007.0 |
| 20260503200009 | 53 | 307 | 9.0 | 16.0 | 0.00 | 0.00 | 0.00 | 52 | 1007.3 |
| 20260503194506 | 53 | 313 | 8.0 | 18.0 | 0.00 | 0.00 | 0.00 | 53 | 1007.6 |
| 20260503193014 | 52 | 303 | 9.0 | 17.0 | 0.00 | 0.00 | 0.00 | 52 | 1007.8 |
| 20260503191502 | 52 | 311 | 10.0 | 15.0 | 0.00 | 0.00 | 0.00 | 55 | 1008.0 |
| 20260503184607 | 52 | 290 | 10.0 | 20.0 | 0.00 | 0.00 | 0.00 | 53 | 1008.4 |
| 20260503183054 | 51 | 291 | 11.0 | 19.0 | 0.00 | 0.00 | 0.00 | 56 | 1008.7 |
| 20260503181552 | 50 | 309 | 11.0 | 18.0 | 0.00 | 0.00 | 0.00 | 58 | 1009.1 |
| 20260503180051 | 52 | 315 | 15.0 | 24.0 | 0.00 | 0.00 | 0.00 | 54 | 1009.1 |
| 20260503174603 | 51 | 289 | 12.0 | 21.0 | 0.00 | 0.00 | 0.00 | 55 | 1009.2 |
| 20260503173049 | 51 | 334 | 11.0 | 21.0 | 0.00 | 0.00 | 0.00 | 57 | 1009.3 |
| 20260503171645 | 50 | 300 | 8.0 | 20.0 | 0.00 | 0.00 | 0.00 | 54 | 1009.4 |
| 20260503081543 | 33 | 277 | 3.0 | 8.0 | 0.00 | 0.00 | 0.00 | 66 | 1010.8 |
| 20260503071532 | 34 | 285 | 3.0 | 9.0 | 0.00 | 0.00 | 0.00 | 69 | 1010.8 |
| 20260503054526 | 36 | 283 | 6.0 | 11.0 | 0.00 | 0.00 | 0.00 | 70 | 1011.1 |
| 20260503053009 | 36 | 286 | 7.0 | 11.0 | 0.00 | 0.00 | 0.00 | 71 | 1011.2 |
| 20260503051505 | 36 | 278 | 3.0 | 10.0 | 0.00 | 0.00 | 0.00 | 71 | 1011.3 |
| 20260503050005 | 36 | 284 | 4.0 | 10.0 | 0.00 | 0.00 | 0.00 | 72 | 1011.5 |